Iridium Next SV164

operational
NORAD ID: 43577 Int'l Des: 2018-061 Owner: IRIDS Country: US Constellation: Iridium NEXT
LEOCIRCULARPOLAR

Iridium Next SV164について

説明を読み込み中...

リアルタイム位置

3D地球を読み込み中...

次回通過

高度履歴

Altitude vs Time

uPlot chart will show altitude changes over time

軌道要素

1 43577U 18061J 25350.30488697 -.00000489 00000-0 -18162-3 0 9996
2 43577 86.3986 133.2366 0002063 88.8563 271.2870 14.34213063387205
Epoch: Dec 16, 2025 • Age: 21 hours

現在のステータス

高度 785.8 km
速度 7.46 km/s
衛星直下点 -19.42°S, 163.03°E
打ち上げ日 Jul 25, 2018
運用期間 7.3 years
タイプ communications

技術仕様

分類 Payload
質量 860.00 kg
乾燥質量 700.00 kg
総質量 860.00 kg
長さ 3.10 m
直径 1.50 m
スパン 9.40 m
形状 Half Hex Prism+2 pan
製造者 NGISGA
バスタイプ EliteBus
フェーズステータス In Orbit
所有者/国 IRIDS/US

大規模コンステレーション

Loading constellations...